Henderson, NV

1:53 PM PDT on March 28, 2017 (GMT -0700)
Henderson

Weather History for KHND - July, 2012

Change the Weather History Date:

Wednesday, July 25, 2012

  Actual Average (KLAS) Record (KLAS)
Temperature  
Mean Temperature 92 °F -  
Max Temperature 104 °F 104 °F 115 °F (1942)
Min Temperature 81 °F 77 °F 66 °F (1944)
Cooling Degree Days 28    
Growing Degree Days 42 (Base 50)    
Moisture  
Dew Point 27 °F    
Average Humidity 10    
Maximum Humidity 18    
Minimum Humidity 4    
Precipitation  
Precipitation 0.00 in - - ()
Sea Level Pressure  
Sea Level Pressure 29.74 in    
Wind  
Wind Speed 9 mph (SSW)    
Max Wind Speed 17 mph    
Max Gust Speed -    
Visibility 10 miles    
Events      
Averages and records for this station are not official NWS values.
T = Trace of Precipitation, MM = Missing Value Source: NWS Daily Summary

Daily Weather History Graph

Daily Weather History Graph

Search for Another Location

Airport or City:

Trip Planner

Search our weather history database for the weather conditions in past years. The results will help you decide how hot, cold, wet, or windy it might be!

Date:

Astronomy

Jul. 25, 2012 Rise Set
Actual Time 5:42 AM PDT 7:50 PM PDT
Civil Twilight 5:14 AM PDT 8:19 PM PDT
Nautical Twilight 4:39 AM PDT 8:54 PM PDT
Astronomical Twilight 4:01 AM PDT 9:32 PM PDT
Moon 12:36 PM PDT (7/25) 11:36 PM PDT (7/25)
Length of Visible Light 15h 05m
Length of Day
14h 07m
Waxing Crescent, 43% of the Moon is Illuminated
Jul 25
Waxing Crescent
Jul 26
First Quarter
Aug 1
Full
Aug 9
Last Quarter
Aug 17
New

Hourly Weather History & Observations

Time (PDT) Temp. Dew Point Humidity Pressure Visibility Wind Dir Wind Speed Gust Speed Precip Events Conditions
12:56 AM 86.9 °F 37.9 °F 18% 29.73 in 10.0 mi NNE 4.6 mph - N/A   Clear
1:56 AM 86.0 °F 30.0 °F 13% 29.73 in 10.0 mi Calm Calm - N/A   Clear
2:56 AM 86.9 °F 24.1 °F 10% 29.73 in 10.0 mi SSW 15.0 mph - N/A   Clear
3:56 AM 82.9 °F 24.1 °F 12% 29.75 in 10.0 mi SSW 11.5 mph - N/A   Clear
4:56 AM 81.0 °F 23.0 °F 12% 29.75 in 10.0 mi SSW 11.5 mph - N/A   Clear
5:56 AM 81.0 °F 22.1 °F 11% 29.77 in 10.0 mi SSW 13.8 mph - N/A   Clear
6:56 AM 81.9 °F 21.0 °F 11% 29.79 in 10.0 mi SSW 17.3 mph - N/A   Clear
7:56 AM 88.0 °F 18.1 °F 8% 29.81 in 10.0 mi SSW 10.4 mph - N/A   Clear
8:56 AM 91.9 °F 13.1 °F 5% 29.81 in 10.0 mi South 11.5 mph - N/A   Clear
9:56 AM 97.0 °F 10.0 °F 4% 29.80 in 10.0 mi South 13.8 mph - N/A   Clear
10:56 AM 99.0 °F 18.1 °F 5% 29.80 in 10.0 mi South 9.2 mph - N/A   Clear
11:56 AM 99.9 °F 36.0 °F 11% 29.79 in 10.0 mi SW 11.5 mph - N/A   Clear
12:56 PM 100.9 °F 37.9 °F 11% 29.77 in 10.0 mi West 13.8 mph - N/A   Clear
1:56 PM 102.9 °F 34.0 °F 9% 29.76 in 10.0 mi SW 11.5 mph - N/A   Clear
2:56 PM 102.9 °F 30.0 °F 8% 29.73 in 10.0 mi SW 9.2 mph - N/A   Clear
3:56 PM 104.0 °F 29.1 °F 7% 29.71 in 10.0 mi West 5.8 mph - N/A   Clear
4:56 PM 102.9 °F 28.0 °F 7% 29.70 in 10.0 mi WSW 6.9 mph - N/A   Clear
5:56 PM 102.9 °F 28.0 °F 7% 29.68 in 10.0 mi WSW 6.9 mph - N/A   Clear
6:56 PM 100.9 °F 30.0 °F 8% 29.68 in 10.0 mi WSW 12.7 mph - N/A   Clear
7:56 PM 97.9 °F 30.0 °F 9% 29.69 in 10.0 mi SW 11.5 mph - N/A   Clear
8:56 PM 93.9 °F 31.1 °F 11% 29.71 in 10.0 mi SSW 6.9 mph - N/A   Clear
9:56 PM 90.9 °F 30.0 °F 11% 29.72 in 10.0 mi South 10.4 mph - N/A   Clear
10:56 PM 88.9 °F 29.1 °F 12% 29.72 in 10.0 mi South 9.2 mph - N/A   Clear
11:56 PM 86.0 °F 29.1 °F 13% 29.73 in 10.0 mi South 9.2 mph - N/A   Clear